,,Stat6,,Stat2,,Stat8,,Stat9,,Stat10,,Wind1,,Wind1,
time,status,PA1M_AVG,status,PR1M_SUM,status,RH1M_AVG,status,SR1M_AVG,status,TA1M_AVG,status,W1dAve1m,status,W1sAve1m,
2008-03-12, 00:00:00,VALID,916.968,VALID,0,VALID,100,VALID,-0.0169808,VALID,19.3217,VALID,24,VALID,0,
2008-03-12, 00:01:00,VALID,916.945,VALID,0,VALID,100,VALID,-0.0169808,VALID,19.3215,VALID,24,VALID,0.179129,
2008-03-12, 00:02:00,VALID,916.925,VALID,0,VALID,100,VALID,0,VALID,19.3604,VALID,25,VALID,0,
2008-03-12, 00:03:00,VALID,916.92,VALID,0.2,VALID,100,VALID,-0.0169808,VALID,19.3799,VALID,25,VALID,0,
2008-03-12, 00:04:00,VALID,916.903,VALID,0,VALID,100,VALID,-0.0169808,VALID,19.3507,VALID,25,VALID,0,
2008-03-12, 00:05:00,VALID,916.91,VALID,0,VALID,100,VALID,0,VALID,19.3345,VALID,25,VALID,0,
2008-03-12, 00:06:00,VALID,916.908,VALID,0.2,VALID,100,VALID,-0.0169808,VALID,19.3345,VALID,25,VALID,0,
2008-03-12, 00:07:00,VALID,916.906,VALID,0,VALID,100,VALID,0,VALID,19.344,VALID,25,VALID,0,
2008-03-12, 00:08:00,VALID,916.919,VALID,0.2,VALID,100,VALID,-0.0169808,VALID,19.3572,VALID,25,VALID,0,
2008-03-12, 00:09:00,VALID,916.909,VALID,0.2,VALID,100,VALID,0,VALID,19.3671,VALID,25,VALID,0,
2008-03-12, 00:10:00,VALID,916.912,VALID,0,VALID,100,VALID,0.0169808,VALID,19.3637,VALID,25,VALID,0,
2008-03-12, 00:11:00,VALID,916.91,VALID,0.2,VALID,100,VALID,-0.0169808,VALID,19.3736,VALID,25,VALID,0,
2008-03-12, 00:12:00,VALID,916.92,VALID,0,VALID,100,VALID,-0.0339617,VALID,19.3764,VALID,25,VALID,0,
2008-03-12, 00:13:00,VALID,916.914,VALID,0,VALID,100,VALID,-0.0339617,VALID,19.3831,VALID,25,VALID,0,
2008-03-12, 00:14:00,VALID,916.914,VALID,0,VALID,100,VALID,-0.0339617,VALID,19.3963,VALID,25,VALID,0,
2008-03-12, 00:15:00,VALID,916.912,VALID,0,VALID,100,VALID,-0.0169808,VALID,19.4088,VALID,25,VALID,0,
2008-03-12, 00:16:00,VALID,916.908,VALID,0,VALID,100,VALID,-0.0169808,VALID,19.3921,VALID,23,VALID,0.0263445,
2008-03-12, 00:17:00,VALID,916.899,VALID,0.2,VALID,100,VALID,0,VALID,19.3991,VALID,22,VALID,0.00241815,
2008-03-12, 00:18:00,VALID,916.893,VALID,0,VALID,100,VALID,0.0169808,VALID,19.3829,VALID,22,VALID,0,
2008-03-12, 00:19:00,VALID,916.884,VALID,0,VALID,100,VALID,-0.0169808,VALID,19.3734,VALID,22,VALID,0,
2008-03-12, 00:20:00,VALID,916.864,VALID,0,VALID,100,VALID,0,VALID,19.3796,VALID,22,VALID,0,
2008-03-12, 00:21:00,VALID,916.836,VALID,0,VALID,100,VALID,-0.0169808,VALID,19.3864,VALID,22,VALID,0,
2008-03-12, 00:22:00,VALID,916.83,VALID,0.2,VALID,100,VALID,0,VALID,19.3831,VALID,22,VALID,0,
2008-03-12, 00:23:00,VALID,916.809,VALID,0,VALID,100,VALID,-0.0339617,VALID,19.4026,VALID,22,VALID,0,
2008-03-12, 00:24:00,VALID,916.8,VALID,0,VALID,100,VALID,-0.0339617,VALID,19.4156,VALID,22,VALID,0,
2008-03-12, 00:25:00,VALID,916.8,VALID,0,VALID,100,VALID,-0.0509425,VALID,19.4053,VALID,22,VALID,0,
2008-03-12, 00:26:00,VALID,916.78,VALID,0,VALID,100,VALID,0,VALID,19.4058,VALID,22,VALID,0,
2008-03-12, 00:27:00,VALID,916.773,VALID,0.2,VALID,100,VALID,0.0169808,VALID,19.4026,VALID,22,VALID,0,
2008-03-12, 00:28:00,VALID,916.771,VALID,0,VALID,100,VALID,-0.0339617,VALID,19.4093,VALID,22,VALID,0,
2008-03-12, 00:29:00,VALID,916.761,VALID,0,VALID,100,VALID,0,VALID,19.4088,VALID,22,VALID,0,
2008-03-12, 00:30:00,VALID,916.754,VALID,0,VALID,100,VALID,0,VALID,19.4123,VALID,22,VALID,0,
2008-03-12, 00:31:00,VALID,916.738,VALID,0,VALID,100,VALID,-0.0339617,VALID,19.4023,VALID,22,VALID,0,
2008-03-12, 00:32:00,VALID,916.738,VALID,0,VALID,100,VALID,-0.0509425,VALID,19.3604,VALID,22,VALID,0,
2008-03-12, 00:33:00,VALID,916.718,VALID,0,VALID,100,VALID,0,VALID,19.3148,VALID,22,VALID,0,
2008-03-12, 00:34:00,VALID,916.694,VALID,0,VALID,100,VALID,0,VALID,19.2858,VALID,22,VALID,0,
2008-03-12, 00:35:00,VALID,916.683,VALID,0.2,VALID,100,VALID,0,VALID,19.2955,VALID,22,VALID,0,
2008-03-12, 00:36:00,VALID,916.672,VALID,0,VALID,100,VALID,0,VALID,19.2826,VALID,22,VALID,0.0105378,
2008-03-12, 00:37:00,VALID,916.658,VALID,0,VALID,100,VALID,0,VALID,19.2821,VALID,22,VALID,0.420015,
2008-03-12, 00:38:00,VALID,916.635,VALID,0,VALID,100,VALID,0,VALID,19.2696,VALID,22,VALID,0.398819,
2008-03-12, 00:39:00,VALID,916.615,VALID,0,VALID,100,VALID,0,VALID,19.2696,VALID,36,VALID,0,
2008-03-12, 00:40:00,VALID,916.596,VALID,0,VALID,100,VALID,-0.0169808,VALID,19.2763,VALID,39,VALID,0,
2008-03-12, 00:41:00,VALID,916.593,VALID,0,VALID,100,VALID,-0.0339617,VALID,19.2858,VALID,39,VALID,0,
2008-03-12, 00:42:00,VALID,916.588,VALID,0.2,VALID,100,VALID,-0.0339617,VALID,19.2988,VALID,39,VALID,0,
2008-03-12, 00:43:00,VALID,916.59,VALID,0,VALID,100,VALID,-0.0339617,VALID,19.289,VALID,39,VALID,0,
2008-03-12, 00:44:00,VALID,916.576,VALID,0,VALID,100,VALID,-0.0509425,VALID,19.2828,VALID,36,VALID,0,
2008-03-12, 00:45:00,VALID,916.569,VALID,0,VALID,100,VALID,0,VALID,19.2469,VALID,31,VALID,0.141555,
2008-03-12, 00:46:00,VALID,916.567,VALID,0,VALID,100,VALID,-0.0339617,VALID,19.2339,VALID,22,VALID,0.0961682,
2008-03-12, 00:47:00,VALID,916.558,VALID,0.2,VALID,100,VALID,0,VALID,19.2793,VALID,21,VALID,0.128089,
2008-03-12, 00:48:00,VALID,916.541,VALID,0,VALID,100,VALID,-0.0339617,VALID,19.2763,VALID,20,VALID,0.143169,
2008-03-12, 00:49:00,VALID,916.508,VALID,0,VALID,100,VALID,-0.0339617,VALID,19.2895,VALID,11,VALID,0.015439,
2008-03-12, 00:50:00,VALID,916.478,VALID,0,VALID,100,VALID,-0.0339617,VALID,19.2731,VALID,11,VALID,0,
2008-03-12, 00:51:00,VALID,916.451,VALID,0.2,VALID,100,VALID,-0.0169808,VALID,19.2631,VALID,11,VALID,0,
2008-03-12, 00:52:00,VALID,916.415,VALID,0,VALID,100,VALID,-0.0169808,VALID,19.2796,VALID,11,VALID,0,
2008-03-12, 00:53:00,VALID,916.378,VALID,0.2,VALID,100,VALID,-0.0509425,VALID,19.2761,VALID,11,VALID,0,
2008-03-12, 00:54:00,VALID,916.36,VALID,0,VALID,100,VALID,-0.0509425,VALID,19.2696,VALID,319,VALID,0.135231,
2008-03-12, 00:55:00,VALID,916.349,VALID,0,VALID,100,VALID,-0.0169808,VALID,19.2566,VALID,240,VALID,0.159412,
2008-03-12, 00:56:00,VALID,916.345,VALID,0,VALID,100,VALID,-0.0339617,VALID,19.2696,VALID,240,VALID,0,
2008-03-12, 00:57:00,VALID,916.362,VALID,0,VALID,100,VALID,-0.0679233,VALID,19.2696,VALID,240,VALID,0,
2008-03-12, 00:58:00,VALID,916.36,VALID,0,VALID,100,VALID,0.0849042,VALID,19.2751,VALID,240,VALID,0,
2008-03-12, 00:59:00,VALID,916.349,VALID,0.2,VALID,100,VALID,0.0509425,VALID,19.2751,VALID,240,VALID,0,
2008-03-12, 01:00:00,VALID,916.357,VALID,0,VALID,100,VALID,0.0339617,VALID,19.2616,VALID,240,VALID,0,
2008-03-12, 01:01:00,VALID,916.352,VALID,0,VALID,100,VALID,0.0849042,VALID,19.2848,VALID,240,VALID,0,
2008-03-12, 01:02:00,VALID,916.364,VALID,0,VALID,100,VALID,0.0679233,VALID,19.2711,VALID,240,VALID,0,
2008-03-12, 01:03:00,VALID,916.365,VALID,0,VALID,100,VALID,0.0679233,VALID,19.2811,VALID,240,VALID,0,
2008-03-12, 01:04:00,VALID,916.369,VALID,0,VALID,100,VALID,0.0509425,VALID,19.2746,VALID,240,VALID,0,
2008-03-12, 01:05:00,VALID,916.389,VALID,0,VALID,100,VALID,0.0679233,VALID,19.2551,VALID,240,VALID,0,
2008-03-12, 01:06:00,VALID,916.392,VALID,0,VALID,100,VALID,0.0849042,VALID,19.2751,VALID,240,VALID,0,
2008-03-12, 01:07:00,VALID,916.384,VALID,0,VALID,100,VALID,0.0339617,VALID,19.2781,VALID,240,VALID,0,
2008-03-12, 01:08:00,VALID,916.372,VALID,0,VALID,100,VALID,0.0339617,VALID,19.2716,VALID,240,VALID,0,
2008-03-12, 01:09:00,VALID,916.373,VALID,0,VALID,100,VALID,0.0849042,VALID,19.2716,VALID,240,VALID,0,
2008-03-12, 01:10:00,VALID,916.356,VALID,0,VALID,100,VALID,0.0679233,VALID,19.2878,VALID,240,VALID,0,
2008-03-12, 01:11:00,VALID,916.353,VALID,0,VALID,100,VALID,0.0339617,VALID,19.304,VALID,240,VALID,0,
2008-03-12, 01:12:00,VALID,916.34,VALID,0,VALID,100,VALID,0.0509425,VALID,19.3073,VALID,240,VALID,0,
2008-03-12, 01:13:00,VALID,916.321,VALID,0,VALID,100,VALID,-0.0339617,VALID,19.3055,VALID,240,VALID,0,
2008-03-12, 01:14:00,VALID,916.314,VALID,0.2,VALID,100,VALID,-0.0339617,VALID,19.289,VALID,240,VALID,0,
2008-03-12, 01:15:00,VALID,916.295,VALID,0,VALID,100,VALID,-0.0509425,VALID,19.2858,VALID,240,VALID,0,
2008-03-12, 01:16:00,VALID,916.297,VALID,0,VALID,100,VALID,-0.0509425,VALID,19.2863,VALID,240,VALID,0,
2008-03-12, 01:17:00,VALID,916.301,VALID,0,VALID,100,VALID,-0.0339617,VALID,19.2731,VALID,240,VALID,0,
2008-03-12, 01:18:00,VALID,916.297,VALID,0,VALID,100,VALID,-0.0679233,VALID,19.2696,VALID,240,VALID,0,
2008-03-12, 01:19:00,VALID,916.293,VALID,0,VALID,100,VALID,-0.0509425,VALID,19.2796,VALID,240,VALID,0,
2008-03-12, 01:20:00,VALID,916.28,VALID,0,VALID,100,VALID,-0.0509425,VALID,19.302,VALID,240,VALID,0,
2008-03-12, 01:21:00,VALID,916.287,VALID,0,VALID,100,VALID,-0.0339617,VALID,19.3245,VALID,240,VALID,0,
2008-03-12, 01:22:00,VALID,916.281,VALID,0,VALID,100,VALID,-0.0509425,VALID,19.299,VALID,240,VALID,0,
2008-03-12, 01:23:00,VALID,916.274,VALID,0,VALID,100,VALID,-0.0509425,VALID,19.2858,VALID,240,VALID,0,
2008-03-12, 01:24:00,VALID,916.256,VALID,0.2,VALID,100,VALID,-0.0169808,VALID,19.2823,VALID,240,VALID,0,
2008-03-12, 01:25:00,VALID,916.239,VALID,0,VALID,100,VALID,-0.0169808,VALID,19.2955,VALID,240,VALID,0,
2008-03-12, 01:26:00,VALID,916.231,VALID,0,VALID,100,VALID,-0.0339617,VALID,19.302,VALID,240,VALID,0,
2008-03-12, 01:27:00,VALID,916.214,VALID,0,VALID,100,VALID,-0.0339617,VALID,19.2925,VALID,240,VALID,0,
2008-03-12, 01:28:00,VALID,916.214,VALID,0,VALID,100,VALID,-0.0509425,VALID,19.2856,VALID,240,VALID,0,
2008-03-12, 01:29:00,VALID,916.192,VALID,0,VALID,100,VALID,-0.0169808,VALID,19.2893,VALID,240,VALID,0,
2008-03-12, 01:30:00,VALID,916.183,VALID,0,VALID,100,VALID,-0.0509425,VALID,19.3025,VALID,240,VALID,0,
2008-03-12, 01:31:00,VALID,916.171,VALID,0,VALID,100,VALID,-0.0679233,VALID,19.3055,VALID,240,VALID,0,
2008-03-12, 01:32:00,VALID,916.152,VALID,0,VALID,100,VALID,-0.0169808,VALID,19.3088,VALID,240,VALID,0,
2008-03-12, 01:33:00,VALID,916.146,VALID,0.2,VALID,100,VALID,-0.0509425,VALID,19.315,VALID,240,VALID,0,
2008-03-12, 01:34:00,VALID,916.141,VALID,0,VALID,100,VALID,-0.0679233,VALID,19.3095,VALID,240,VALID,0,
2008-03-12, 01:35:00,VALID,916.13,VALID,0,VALID,100,VALID,-0.0339617,VALID,19.3018,VALID,240,VALID,0,
2008-03-12, 01:36:00,VALID,916.113,VALID,0,VALID,100,VALID,-0.0339617,VALID,19.3118,VALID,240,VALID,0,
2008-03-12, 01:37:00,VALID,916.112,VALID,0,VALID,100,VALID,-0.0169808,VALID,19.3152,VALID,240,VALID,0,
2008-03-12, 01:38:00,VALID,916.108,VALID,0,VALID,100,VALID,-0.0339617,VALID,19.315,VALID,240,VALID,0,
2008-03-12, 01:39:00,VALID,916.104,VALID,0,VALID,100,VALID,-0.0339617,VALID,19.3217,VALID,240,VALID,0,
2008-03-12, 01:40:00,VALID,916.088,VALID,0,VALID,100,VALID,-0.0339617,VALID,19.3282,VALID,240,VALID,0,
2008-03-12, 01:41:00,VALID,916.073,VALID,0.2,VALID,100,VALID,-0.0679233,VALID,19.3484,VALID,240,VALID,0,
2008-03-12, 01:42:00,VALID,916.048,VALID,0,VALID,100,VALID,-0.0169808,VALID,19.3474,VALID,240,VALID,0,
2008-03-12, 01:43:00,VALID,916.043,VALID,0,VALID,100,VALID,-0.0339617,VALID,19.3704,VALID,240,VALID,0,
2008-03-12, 01:44:00,VALID,916.03,VALID,0,VALID,100,VALID,-0.0169808,VALID,19.3572,VALID,240,VALID,0,
2008-03-12, 01:45:00,VALID,916.015,VALID,0,VALID,100,VALID,-0.0339617,VALID,19.3442,VALID,240,VALID,0,
2008-03-12, 01:46:00,VALID,916.011,VALID,0,VALID,100,VALID,-0.0339617,VALID,19.3474,VALID,240,VALID,0,
2008-03-12, 01:47:00,VALID,916.008,VALID,0.2,VALID,100,VALID,0,VALID,19.3769,VALID,240,VALID,0,
2008-03-12, 01:48:00,VALID,916.006,VALID,0,VALID,100,VALID,-0.0509425,VALID,19.3929,VALID,240,VALID,0,
2008-03-12, 01:49:00,VALID,915.983,VALID,0,VALID,100,VALID,-0.0169808,VALID,19.3769,VALID,240,VALID,0,
2008-03-12, 01:50:00,VALID,915.982,VALID,0,VALID,100,VALID,-0.0849042,VALID,19.341,VALID,240,VALID,0,
2008-03-12, 01:51:00,VALID,915.969,VALID,0,VALID,100,VALID,-0.0339617,VALID,19.3412,VALID,240,VALID,0,
2008-03-12, 01:52:00,VALID,915.967,VALID,0,VALID,100,VALID,-0.0679233,VALID,19.3509,VALID,236,VALID,0,
2008-03-12, 01:53:00,VALID,915.953,VALID,0,VALID,100,VALID,-0.0169808,VALID,19.3442,VALID,211,VALID,0,
2008-03-12, 01:54:00,VALID,915.959,VALID,0,VALID,100,VALID,-0.0169808,VALID,19.3604,VALID,211,VALID,0,
2008-03-12, 01:55:00,VALID,915.954,VALID,0.2,VALID,100,VALID,-0.0169808,VALID,19.3836,VALID,211,VALID,0,
2008-03-12, 01:56:00,VALID,915.951,VALID,0,VALID,100,VALID,0,VALID,19.3933,VALID,211,VALID,0,
2008-03-12, 01:57:00,VALID,915.948,VALID,0,VALID,100,VALID,-0.0339617,VALID,19.3864,VALID,211,VALID,0,
2008-03-12, 01:58:00,VALID,915.945,VALID,0,VALID,100,VALID,-0.0339617,VALID,19.4058,VALID,211,VALID,0,
2008-03-12, 01:59:00,VALID,915.936,VALID,0,VALID,100,VALID,-0.0169808,VALID,19.4223,VALID,211,VALID,0,
2008-03-12, 02:00:00,VALID,915.926,VALID,0,VALID,100,VALID,-0.0339617,VALID,19.4221,VALID,211,VALID,0,
2008-03-12, 02:01:00,VALID,915.926,VALID,0,VALID,100,VALID,-0.0679233,VALID,19.4318,VALID,211,VALID,0,
2008-03-12, 02:02:00,VALID,915.906,VALID,0.2,VALID,100,VALID,-0.0679233,VALID,19.4221,VALID,211,VALID,0,
2008-03-12, 02:03:00,VALID,915.903,VALID,0,VALID,100,VALID,-0.0169808,VALID,19.3604,VALID,211,VALID,0,
2008-03-12, 02:04:00,VALID,915.876,VALID,0,VALID,100,VALID,-0.0509425,VALID,19.318,VALID,211,VALID,0,
2008-03-12, 02:05:00,VALID,915.872,VALID,0,VALID,100,VALID,-0.0339617,VALID,19.3053,VALID,211,VALID,0,
2008-03-12, 02:06:00,VALID,915.862,VALID,0,VALID,100,VALID,-0.0169808,VALID,19.3118,VALID,211,VALID,0,
2008-03-12, 02:07:00,VALID,915.852,VALID,0,VALID,100,VALID,-0.0339617,VALID,19.2858,VALID,211,VALID,0,
2008-03-12, 02:08:00,VALID,915.825,VALID,0,VALID,100,VALID,-0.0169808,VALID,19.2566,VALID,211,VALID,0,
2008-03-12, 02:09:00,VALID,915.815,VALID,0,VALID,100,VALID,-0.0509425,VALID,19.2539,VALID,211,VALID,0,
2008-03-12, 02:10:00,VALID,915.806,VALID,0,VALID,100,VALID,-0.0169808,VALID,19.2471,VALID,211,VALID,0,
2008-03-12, 02:11:00,VALID,915.786,VALID,0,VALID,100,VALID,-0.0849042,VALID,19.2371,VALID,211,VALID,0,
2008-03-12, 02:12:00,VALID,915.791,VALID,0,VALID,100,VALID,-0.0339617,VALID,19.2174,VALID,211,VALID,0,
2008-03-12, 02:13:00,VALID,915.786,VALID,0,VALID,100,VALID,0.0679233,VALID,19.1968,VALID,211,VALID,0,
2008-03-12, 02:14:00,VALID,915.786,VALID,0,VALID,100,VALID,0.0849042,VALID,19.1905,VALID,211,VALID,0,
2008-03-12, 02:15:00,VALID,915.779,VALID,0.2,VALID,100,VALID,0.0339617,VALID,19.1968,VALID,211,VALID,0,
2008-03-12, 02:16:00,VALID,915.788,VALID,0,VALID,100,VALID,0.0849042,VALID,19.207,VALID,211,VALID,0,
2008-03-12, 02:17:00,VALID,915.781,VALID,0,VALID,100,VALID,0.0679233,VALID,19.2105,VALID,211,VALID,0,
2008-03-12, 02:18:00,VALID,915.782,VALID,0,VALID,100,VALID,0.0679233,VALID,19.1933,VALID,211,VALID,0,
2008-03-12, 02:19:00,VALID,915.772,VALID,0,VALID,100,VALID,0.0679233,VALID,19.1703,VALID,284,VALID,0,
2008-03-12, 02:20:00,VALID,915.767,VALID,0,VALID,100,VALID,0.0849042,VALID,19.1479,VALID,324,VALID,0,
2008-03-12, 02:21:00,VALID,915.747,VALID,0,VALID,100,VALID,0.0509425,VALID,19.1287,VALID,324,VALID,0,
2008-03-12, 02:22:00,VALID,915.735,VALID,0,VALID,100,VALID,0.0509425,VALID,19.1226,VALID,324,VALID,0,
2008-03-12, 02:23:00,VALID,915.739,VALID,0,VALID,100,VALID,0.0339617,VALID,19.1451,VALID,324,VALID,0,
2008-03-12, 02:24:00,VALID,915.728,VALID,0,VALID,100,VALID,0.0509425,VALID,19.1583,VALID,324,VALID,0,
2008-03-12, 02:25:00,VALID,915.727,VALID,0,VALID,100,VALID,0.0509425,VALID,19.1711,VALID,324,VALID,0,
2008-03-12, 02:26:00,VALID,915.709,VALID,0,VALID,100,VALID,0.0339617,VALID,19.1873,VALID,324,VALID,0,
2008-03-12, 02:27:00,VALID,915.707,VALID,0.2,VALID,100,VALID,0.0849042,VALID,19.1903,VALID,324,VALID,0,
2008-03-12, 02:28:00,VALID,915.695,VALID,0,VALID,100,VALID,0.0169808,VALID,19.2102,VALID,324,VALID,0,
2008-03-12, 02:29:00,VALID,915.678,VALID,0,VALID,100,VALID,0.0679233,VALID,19.2227,VALID,324,VALID,0,
2008-03-12, 02:30:00,VALID,915.659,VALID,0,VALID,100,VALID,0.0509425,VALID,19.2297,VALID,324,VALID,0,
2008-03-12, 02:31:00,VALID,915.66,VALID,0,VALID,100,VALID,0.0849042,VALID,19.2262,VALID,324,VALID,0,
2008-03-12, 02:32:00,VALID,915.636,VALID,0,VALID,100,VALID,0.0679233,VALID,19.2454,VALID,340,VALID,0.238814,
2008-03-12, 02:33:00,VALID,915.647,VALID,0,VALID,100,VALID,0.0339617,VALID,19.197,VALID,8,VALID,0.486919,
2008-03-12, 02:34:00,VALID,915.648,VALID,0,VALID,100,VALID,0.0339617,VALID,19.1356,VALID,35,VALID,0,
2008-03-12, 02:35:00,VALID,915.637,VALID,0,VALID,100,VALID,0.0679233,VALID,19.0995,VALID,32,VALID,0.176054,
2008-03-12, 02:36:00,VALID,915.624,VALID,0,VALID,100,VALID,0.0509425,VALID,19.0638,VALID,19,VALID,0.456845,
2008-03-12, 02:37:00,VALID,915.621,VALID,0,VALID,100,VALID,0.0509425,VALID,19.0313,VALID,19,VALID,0.332114,
2008-03-12, 02:38:00,VALID,915.614,VALID,0,VALID,100,VALID,0.0509425,VALID,19.0411,VALID,22,VALID,0,
2008-03-12, 02:39:00,VALID,915.612,VALID,0.2,VALID,100,VALID,0.0679233,VALID,19.0508,VALID,29,VALID,0,
2008-03-12, 02:40:00,VALID,915.584,VALID,0,VALID,100,VALID,0.0509425,VALID,19.0119,VALID,37,VALID,0,
2008-03-12, 02:41:00,VALID,915.567,VALID,0,VALID,100,VALID,0.0339617,VALID,18.9308,VALID,38,VALID,0,
2008-03-12, 02:42:00,VALID,915.566,VALID,0,VALID,100,VALID,0.0339617,VALID,18.9211,VALID,38,VALID,0,
2008-03-12, 02:43:00,VALID,915.548,VALID,0,VALID,100,VALID,-0.0169808,VALID,18.8803,VALID,38,VALID,0,
2008-03-12, 02:44:00,VALID,915.553,VALID,0,VALID,100,VALID,-0.0169808,VALID,18.8836,VALID,31,VALID,0,
2008-03-12, 02:45:00,VALID,915.549,VALID,0,VALID,100,VALID,0,VALID,18.8966,VALID,19,VALID,0,
2008-03-12, 02:46:00,VALID,915.544,VALID,0,VALID,100,VALID,0,VALID,18.8996,VALID,22,VALID,0,
2008-03-12, 02:47:00,VALID,915.542,VALID,0,VALID,100,VALID,0,VALID,18.8701,VALID,28,VALID,0,
2008-03-12, 02:48:00,VALID,915.549,VALID,0,VALID,100,VALID,-0.0339617,VALID,18.8931,VALID,29,VALID,0,
2008-03-12, 02:49:00,VALID,915.545,VALID,0,VALID,100,VALID,-0.0339617,VALID,18.9063,VALID,34,VALID,0,
2008-03-12, 02:50:00,VALID,915.537,VALID,0.2,VALID,100,VALID,-0.0169808,VALID,18.9063,VALID,37,VALID,0,
2008-03-12, 02:51:00,VALID,915.532,VALID,0,VALID,100,VALID,0,VALID,18.8803,VALID,38,VALID,0,
2008-03-12, 02:52:00,VALID,915.529,VALID,0,VALID,100,VALID,0,VALID,18.8966,VALID,21,VALID,0,
2008-03-12, 02:53:00,VALID,915.525,VALID,0,VALID,100,VALID,-0.0169808,VALID,18.913,VALID,31,VALID,0.0900391,
2008-03-12, 02:54:00,VALID,915.515,VALID,0,VALID,100,VALID,-0.0339617,VALID,18.8968,VALID,46,VALID,0,
2008-03-12, 02:55:00,VALID,915.519,VALID,0,VALID,100,VALID,-0.0169808,VALID,18.8741,VALID,46,VALID,0,
2008-03-12, 02:56:00,VALID,915.512,VALID,0,VALID,100,VALID,-0.0339617,VALID,18.8706,VALID,46,VALID,0,
2008-03-12, 02:57:00,VALID,915.512,VALID,0,VALID,100,VALID,-0.0509425,VALID,18.8609,VALID,46,VALID,0,
2008-03-12, 02:58:00,VALID,915.514,VALID,0.2,VALID,100,VALID,-0.0169808,VALID,18.8609,VALID,41,VALID,0,
2008-03-12, 02:59:00,VALID,915.506,VALID,0,VALID,100,VALID,0,VALID,18.8349,VALID,44,VALID,0.502725,
2008-03-12, 03:00:00,VALID,915.509,VALID,0,VALID,100,VALID,0.0169808,VALID,18.8087,VALID,35,VALID,0.583394,
2008-03-12, 03:01:00,VALID,915.515,VALID,0,VALID,100,VALID,0.0849042,VALID,18.8238,VALID,44,VALID,0.23402,
2008-03-12, 03:02:00,VALID,915.503,VALID,0,VALID,100,VALID,0.0509425,VALID,18.8008,VALID,45,VALID,0,
2008-03-12, 03:03:00,VALID,915.505,VALID,0.2,VALID,100,VALID,0.0679233,VALID,18.7978,VALID,45,VALID,0,
2008-03-12, 03:04:00,VALID,915.496,VALID,0,VALID,100,VALID,0.0679233,VALID,18.7814,VALID,45,VALID,0,
2008-03-12, 03:05:00,VALID,915.493,VALID,0,VALID,100,VALID,0.0849042,VALID,18.7784,VALID,53,VALID,0.484538,
2008-03-12, 03:06:00,VALID,915.485,VALID,0,VALID,100,VALID,0.101885,VALID,18.7652,VALID,57,VALID,0.549851,
2008-03-12, 03:07:00,VALID,915.486,VALID,0,VALID,100,VALID,0.0679233,VALID,18.7846,VALID,57,VALID,0.100446,
2008-03-12, 03:08:00,VALID,915.472,VALID,0,VALID,100,VALID,0.0849042,VALID,18.8106,VALID,57,VALID,0,
2008-03-12, 03:09:00,VALID,915.466,VALID,0.2,VALID,100,VALID,0.0849042,VALID,18.8108,VALID,57,VALID,0,
2008-03-12, 03:10:00,VALID,915.468,VALID,0,VALID,100,VALID,0.0679233,VALID,18.7881,VALID,57,VALID,0,
2008-03-12, 03:11:00,VALID,915.467,VALID,0,VALID,100,VALID,0.101885,VALID,18.7747,VALID,57,VALID,0,
2008-03-12, 03:12:00,VALID,915.437,VALID,0,VALID,100,VALID,0.101885,VALID,18.7911,VALID,57,VALID,0,
2008-03-12, 03:13:00,VALID,915.457,VALID,0,VALID,100,VALID,0,VALID,18.7985,VALID,57,VALID,0,
2008-03-12, 03:14:00,VALID,915.439,VALID,0,VALID,100,VALID,0,VALID,18.7925,VALID,57,VALID,0,
2008-03-12, 03:15:00,VALID,915.435,VALID,0.2,VALID,100,VALID,-0.0339617,VALID,18.8025,VALID,57,VALID,0,
2008-03-12, 03:16:00,VALID,915.437,VALID,0,VALID,100,VALID,-0.0169808,VALID,18.7985,VALID,57,VALID,0,
2008-03-12, 03:17:00,VALID,915.432,VALID,0,VALID,100,VALID,-0.0169808,VALID,18.8055,VALID,57,VALID,0,
2008-03-12, 03:18:00,VALID,915.438,VALID,0,VALID,100,VALID,-0.0339617,VALID,18.8157,VALID,57,VALID,0,
2008-03-12, 03:19:00,VALID,915.427,VALID,0.2,VALID,100,VALID,0,VALID,18.8115,VALID,57,VALID,0,
2008-03-12, 03:20:00,VALID,915.417,VALID,0,VALID,100,VALID,0,VALID,18.812,VALID,57,VALID,0,
2008-03-12, 03:21:00,VALID,915.404,VALID,0,VALID,100,VALID,-0.0169808,VALID,18.8282,VALID,57,VALID,0,
2008-03-12, 03:22:00,VALID,915.396,VALID,0.2,VALID,100,VALID,-0.0169808,VALID,18.8349,VALID,57,VALID,0,
2008-03-12, 03:23:00,VALID,915.386,VALID,0,VALID,100,VALID,-0.0169808,VALID,18.8509,VALID,57,VALID,0,
2008-03-12, 03:24:00,VALID,915.368,VALID,0,VALID,100,VALID,-0.0169808,VALID,18.8606,VALID,57,VALID,0,
2008-03-12, 03:25:00,VALID,915.361,VALID,0.2,VALID,100,VALID,-0.0169808,VALID,18.8634,VALID,57,VALID,0,
2008-03-12, 03:26:00,VALID,915.358,VALID,0,VALID,100,VALID,-0.0339617,VALID,18.8838,VALID,57,VALID,0,
2008-03-12, 03:27:00,VALID,915.364,VALID,0,VALID,100,VALID,-0.0339617,VALID,18.8639,VALID,57,VALID,0,
2008-03-12, 03:28:00,VALID,915.356,VALID,0,VALID,100,VALID,-0.0339617,VALID,18.8382,VALID,57,VALID,0,
2008-03-12, 03:29:00,VALID,915.358,VALID,0.2,VALID,100,VALID,-0.0679233,VALID,18.8449,VALID,59,VALID,0,
2008-03-12, 03:30:00,VALID,915.35,VALID,0,VALID,100,VALID,-0.0849042,VALID,18.8484,VALID,60,VALID,0,
2008-03-12, 03:31:00,VALID,915.34,VALID,0,VALID,100,VALID,-0.0339617,VALID,18.8609,VALID,60,VALID,0,
2008-03-12, 03:32:00,VALID,915.336,VALID,0,VALID,100,VALID,-0.0339617,VALID,18.8773,VALID,60,VALID,0,
2008-03-12, 03:33:00,VALID,915.325,VALID,0.2,VALID,100,VALID,-0.0679233,VALID,18.8871,VALID,60,VALID,0,
2008-03-12, 03:34:00,VALID,915.319,VALID,0,VALID,100,VALID,-0.101885,VALID,18.9063,VALID,60,VALID,0,
2008-03-12, 03:35:00,VALID,915.306,VALID,0,VALID,100,VALID,-0.0849042,VALID,18.9387,VALID,60,VALID,0,
2008-03-12, 03:36:00,VALID,915.307,VALID,0,VALID,100,VALID,-0.0509425,VALID,18.9649,VALID,60,VALID,0,
2008-03-12, 03:37:00,VALID,915.306,VALID,0,VALID,100,VALID,-0.0509425,VALID,18.9744,VALID,60,VALID,0,
2008-03-12, 03:38:00,VALID,915.281,VALID,0,VALID,100,VALID,-0.0509425,VALID,18.9707,VALID,60,VALID,0,
2008-03-12, 03:39:00,VALID,915.271,VALID,0.2,VALID,100,VALID,0,VALID,19.0004,VALID,67,VALID,0,
2008-03-12, 03:40:00,VALID,915.265,VALID,0,VALID,100,VALID,-0.0339617,VALID,19.0166,VALID,182,VALID,0,
2008-03-12, 03:41:00,VALID,915.252,VALID,0,VALID,100,VALID,-0.0339617,VALID,19.0298,VALID,182,VALID,0,
2008-03-12, 03:42:00,VALID,915.257,VALID,0,VALID,100,VALID,-0.0849042,VALID,19.0395,VALID,181,VALID,0.0517805,
2008-03-12, 03:43:00,VALID,915.255,VALID,0,VALID,100,VALID,-0.0509425,VALID,19.0393,VALID,213,VALID,0.290879,
2008-03-12, 03:44:00,VALID,915.236,VALID,0,VALID,100,VALID,-0.0509425,VALID,19.0325,VALID,211,VALID,0.0090843,
2008-03-12, 03:45:00,VALID,915.247,VALID,0,VALID,100,VALID,-0.0509425,VALID,19.0263,VALID,208,VALID,0.0741235,
2008-03-12, 03:46:00,VALID,915.228,VALID,0,VALID,100,VALID,-0.0339617,VALID,19.0231,VALID,208,VALID,0.181548,
2008-03-12, 03:47:00,VALID,915.206,VALID,0,VALID,100,VALID,-0.0339617,VALID,19.0293,VALID,208,VALID,0,
2008-03-12, 03:48:00,VALID,915.203,VALID,0.2,VALID,100,VALID,-0.0169808,VALID,19.0166,VALID,208,VALID,0,
2008-03-12, 03:49:00,VALID,915.196,VALID,0,VALID,100,VALID,-0.0509425,VALID,19.0036,VALID,207,VALID,0,
2008-03-12, 03:50:00,VALID,915.186,VALID,0,VALID,100,VALID,-0.0509425,VALID,19.0068,VALID,205,VALID,0,